GW0416 Weather Reports


Display with metric or nautical units.
time (UTC)temp
F
wind
direction
speed
MPH
gust
MPH
rain 1hr
in
rain 24hr
in
rain mn
in
humidity
%
barometer
mb
20260903193038 71 229 19.0 28.0 0.00 0.07 0.00 35 1008.2
20260903191537 71 240 20.0 29.0 0.00 0.07 0.00 36 1008.3
20260903190036 71 209 19.0 32.0 0.00 0.07 0.00 37 1008.1
20260903184534 70 240 21.0 29.0 0.00 0.07 0.00 37 1008.0
20260903183039 70 234 16.0 26.0 0.00 0.07 0.00 38 1008.0
20260903181537 69 236 19.0 29.0 0.00 0.07 0.00 37 1008.2
20260903180042 69 232 17.0 25.0 0.00 0.07 0.00 43 1008.3
20260903174534 67 241 13.0 23.0 0.00 0.07 0.00 45 1008.2
20260903173037 66 278 12.0 17.0 0.00 0.07 0.00 50 1008.4
20260903171535 64 236 7.0 16.0 0.00 0.07 0.00 54 1008.6
20260903170046 64 240 10.0 17.0 0.00 0.07 0.00 55 1008.3
20260903164538 62 263 7.0 14.0 0.00 0.07 0.00 60 1008.5
20260903163037 59 242 7.0 11.0 0.00 0.07 0.00 63 1008.5
20260903161536 57 249 6.0 10.0 0.00 0.07 0.00 68 1008.4
20260903160038 56 264 5.0 10.0 0.00 0.07 0.00 71 1008.4
20260903154543 55 246 7.0 12.0 0.00 0.07 0.00 73 1008.5
20260903153046 54 236 9.0 13.0 0.00 0.07 0.00 74 1008.5
20260903151537 54 230 8.0 13.0 0.00 0.07 0.00 75 1008.6
20260903150035 53 242 7.0 14.0 0.00 0.07 0.00 76 1008.4
20260903144541 52 230 9.0 13.0 0.00 0.07 0.00 77 1008.6
20260903143045 51 229 8.0 13.0 0.00 0.07 0.00 77 1008.4
20260903141542 51 215 9.0 16.0 0.00 0.07 0.00 77 1008.2
20260903140038 50 203 9.0 14.0 0.00 0.07 0.00 78 1008.0
20260903134536 50 233 7.0 14.0 0.00 0.07 0.00 77 1007.9
20260903133035 49 217 8.0 12.0 0.00 0.07 0.00 78 1007.8
20260903131535 49 202 7.0 14.0 0.00 0.07 0.00 78 1007.6
20260903130038 48 207 7.0 9.0 0.00 0.07 0.00 80 1007.4
20260903124535 46 188 7.0 9.0 0.00 0.07 0.00 81 1007.2
20260903123035 47 172 6.0 14.0 0.00 0.07 0.00 78 1006.9
20260903121534 49 214 10.0 16.0 0.00 0.07 0.00 73 1006.9
20260903120039 47 244 8.0 12.0 0.00 0.07 0.00 76 1006.9
20260903114532 50 245 9.0 15.0 0.00 0.07 0.00 72 1007.0
20260903113033 46 234 2.0 10.0 0.00 0.07 0.00 75 1007.2
20260903111546 51 252 7.0 11.0 0.00 0.07 0.00 70 1007.1
20260903110034 49 261 5.0 7.0 0.00 0.07 0.00 73 1007.3
20260903104537 47 257 2.0 4.0 0.00 0.07 0.00 76 1007.3
20260903103051 48 198 5.0 8.0 0.00 0.07 0.00 74 1007.3
20260903101534 48 229 3.0 5.0 0.00 0.07 0.00 75 1007.2
20260903100038 47 0 0.0 2.0 0.00 0.07 0.00 77 1007.1
20260903094539 49 227 0.0 3.0 0.00 0.07 0.00 75 1007.3
20260903093046 49 229 2.0 4.0 0.00 0.07 0.00 73 1006.9
20260903091539 49 242 2.0 4.0 0.00 0.07 0.00 73 1006.9
20260903090038 50 242 0.0 3.0 0.00 0.07 0.00 73 1007.0
20260903084544 50 244 3.0 8.0 0.00 0.07 0.00 73 1006.8
20260903083033 49 212 5.0 7.0 0.00 0.07 0.00 77 1006.8
20260903081535 48 198 4.0 5.0 0.00 0.07 0.00 79 1006.8
20260903080039 48 188 8.0 12.0 0.00 0.07 0.00 78 1006.8
20260903074536 48 217 7.0 10.0 0.00 0.07 0.00 79 1006.8
20260903073037 49 175 6.0 11.0 0.00 0.07 0.00 76 1006.9
20260903071534 49 205 8.0 12.0 0.00 0.07 0.00 78 1006.8
20260903070035 52 232 7.0 11.0 0.00 0.07 0.00 71 1006.8
20260903064542 52 232 7.0 10.0 0.00 0.07 0.00 73 1006.6
20260903063044 50 234 5.0 10.0 0.00 0.07 0.00 77 1006.8
20260903061537 51 207 7.0 9.0 0.00 0.07 0.00 78 1006.6
20260903060042 51 202 5.0 9.0 0.00 0.07 0.00 78 1006.9
20260903054537 52 202 7.0 14.0 0.00 0.07 0.07 77 1007.1
20260903053037 52 184 10.0 16.0 0.00 0.07 0.07 78 1007.1
20260903051536 51 208 7.0 10.0 0.00 0.07 0.07 82 1007.3
20260903050044 50 221 7.0 15.0 0.00 0.07 0.07 81 1007.3
20260903044544 51 227 8.0 11.0 0.00 0.07 0.07 80 1007.5
20260903043036 52 230 9.0 12.0 0.00 0.07 0.07 76 1007.4
20260903041542 54 222 8.0 14.0 0.00 0.07 0.07 73 1007.2
20260903040038 53 229 7.0 12.0 0.00 0.07 0.07 76 1007.6
20260903034538 54 238 7.0 14.0 0.00 0.07 0.07 74 1007.5
20260903033036 53 244 10.0 15.0 0.00 0.07 0.07 74 1007.3
20260903031538 55 240 10.0 17.0 0.00 0.07 0.07 72 1007.1
20260903030035 55 201 9.0 18.0 0.00 0.07 0.07 73 1007.3
20260903024535 55 288 13.0 19.0 0.00 0.07 0.07 73 1007.0
20260903023034 56 270 13.0 21.0 0.00 0.07 0.07 73 1006.5
20260903021536 57 246 15.0 23.0 0.00 0.07 0.07 73 1006.8
20260903020057 57 200 11.0 14.0 0.00 0.07 0.07 77 1006.8
20260903014537 60 227 6.0 10.0 0.00 0.07 0.07 70 1006.4
20260903013035 61 185 6.0 8.0 0.00 0.07 0.07 70 1007.0
20260903011538 62 171 4.0 7.0 0.00 0.07 0.07 64 1007.2
20260903010035 60 169 6.0 8.0 0.01 0.07 0.07 68 1007.2
20260903004537 59 269 4.0 9.0 0.02 0.07 0.07 72 1006.8
20260903003034 59 328 6.0 13.0 0.04 0.07 0.07 74 1006.6
20260903001552 59 318 2.0 7.0 0.04 0.07 0.07 70 1007.6
20260903000041 59 285 7.0 18.0 0.03 0.06 0.06 71 1008.1
20260902234539 59 216 20.0 30.0 0.05 0.05 0.05 68 1008.9
20260902233036 59 230 32.0 44.0 0.03 0.03 0.03 70 1008.2
20260902231540 59 206 26.0 39.0 0.03 0.03 0.03 70 1007.9
20260902230037 58 240 30.0 60.0 0.03 0.03 0.03 73 1007.1
20260902224534 76 223 24.0 41.0 0.00 0.00 0.00 32 1004.6
20260902223036 81 171 8.0 17.0 0.00 0.00 0.00 30 1003.2
20260902221551 82 200 10.0 20.0 0.00 0.00 0.00 29 1003.2
20260902220037 82 161 11.0 18.0 0.00 0.00 0.00 28 1003.2
20260902214535 83 205 18.0 29.0 0.00 0.00 0.00 29 1003.5
20260902213036 82 172 11.0 26.0 0.00 0.00 0.00 31 1003.5
20260902211536 82 148 8.0 19.0 0.00 0.00 0.00 32 1003.7
20260902210036 80 167 10.0 19.0 0.00 0.00 0.00 32 1004.2
20260902204543 80 146 12.0 18.0 0.00 0.00 0.00 32 1004.8
20260902203036 78 149 10.0 20.0 0.00 0.00 0.00 34 1005.0
20260902201540 78 151 13.0 21.0 0.00 0.00 0.00 34 1005.3
20260902200037 77 179 11.0 20.0 0.00 0.00 0.00 37 1005.4
20260902194549 77 190 9.0 16.0 0.00 0.00 0.00 38 1005.4